Jackson, WY

7:22 AM MDT on June 28, 2017 (GMT -0600)
Jackson Hole

Weather History for KJAC - January, 2014

Change the Weather History Date:

Saturday, January 18, 2014

  Actual Average Record
Temperature  
Mean Temperature 12 °F -  
Max Temperature 24 °F 28 °F 42 °F (1959)
Min Temperature 1 °F 5 °F -36 °F (1984)
Degree Days  
Heating Degree Days 52    
Moisture  
Dew Point 5 °F    
Average Humidity 88    
Maximum Humidity 100    
Minimum Humidity 59    
Precipitation  
Precipitation 0.00 in - - ()
Sea Level Pressure  
Sea Level Pressure 30.35 in    
Wind  
Wind Speed 5 mph (North)    
Max Wind Speed 13 mph    
Max Gust Speed -    
Visibility 10 miles    
Events      
Averages and records for this station are not official NWS values.
T = Trace of Precipitation, MM = Missing Value Source: NWS Daily Summary

Daily Weather History Graph

Daily Weather History Graph

Search for Another Location

Airport or City:

Trip Planner

Search our weather history database for the weather conditions in past years. The results will help you decide how hot, cold, wet, or windy it might be!

Date:

Astronomy

Jan. 18, 2014 Rise Set
Actual Time 7:51 AM MST 5:15 PM MST
Civil Twilight 7:19 AM MST 5:47 PM MST
Nautical Twilight 6:44 AM MST 6:22 PM MST
Astronomical Twilight 6:10 AM MST 6:56 PM MST
Moon 8:07 PM MST (1/18) 8:47 AM MST (1/18)
Length of Visible Light 10h 27m
Length of Day
9h 24m
Waning Gibbous, 94% of the Moon is Illuminated
Jan 18
Waning Gibbous
Jan 23
Last Quarter
Jan 30
New
Feb 6
First Quarter
Feb 14
Full

Hourly Weather History & Observations

Time (MST) Temp. Windchill Dew Point Humidity Pressure Visibility Wind Dir Wind Speed Gust Speed Precip Events Conditions
12:15 AM 12.2 °F 4.3 °F 8.6 °F 85% 30.33 in 10.0 mi ENE 4.6 mph - N/A   Partly Cloudy
12:35 AM 10.4 °F 0.8 °F 8.6 °F 92% 30.32 in 10.0 mi NE 5.8 mph - N/A   Clear
12:55 AM 8.6 °F -1.3 °F 6.8 °F 92% 30.33 in 10.0 mi NNE 5.8 mph - N/A   Clear
1:15 AM 6.8 °F -2.0 °F 6.8 °F 100% 30.33 in 10.0 mi North 4.6 mph - N/A   Clear
1:35 AM 6.8 °F -4.8 °F 3.2 °F 85% 30.33 in 10.0 mi NNE 6.9 mph - N/A   Clear
1:55 AM 6.8 °F -3.5 °F 6.8 °F 100% 30.33 in 10.0 mi North 5.8 mph - N/A   Clear
2:15 AM 3.2 °F -7.8 °F 3.2 °F 100% 30.34 in 10.0 mi North 5.8 mph - N/A   Clear
2:35 AM 5.0 °F -9.1 °F 3.2 °F 92% 30.34 in 10.0 mi NNE 9.2 mph - N/A   Clear
2:55 AM 8.6 °F -5.5 °F 6.8 °F 92% 30.35 in 10.0 mi North 10.4 mph - N/A   Clear
3:15 AM 6.8 °F -2.0 °F 5.0 °F 92% 30.35 in 10.0 mi NNW 4.6 mph - N/A   Clear
3:35 AM 5.0 °F -2.1 °F 3.2 °F 92% 30.36 in 10.0 mi North 3.5 mph - N/A   Clear
3:55 AM 3.2 °F -7.8 °F 1.4 °F 92% 30.36 in 10.0 mi NNE 5.8 mph - N/A   Clear
4:15 AM 3.2 °F -6.2 °F 1.4 °F 92% 30.36 in 10.0 mi NNE 4.6 mph - N/A   Clear
4:35 AM 3.2 °F -13.9 °F 3.2 °F 100% 30.36 in 10.0 mi North 12.7 mph - N/A   Clear
4:55 AM 3.2 °F -12.2 °F 3.2 °F 100% 30.36 in 10.0 mi North 10.4 mph - N/A   Clear
5:15 AM 3.2 °F - 1.4 °F 92% 30.37 in 10.0 mi Calm Calm - N/A   Clear
5:35 AM 3.2 °F -9.1 °F 3.2 °F 100% 30.38 in 10.0 mi NNE 6.9 mph - N/A   Clear
5:55 AM 3.2 °F -12.2 °F 1.4 °F 92% 30.38 in 10.0 mi North 10.4 mph - N/A   Clear
6:15 AM 1.4 °F -11.3 °F -0.4 °F 92% 30.38 in 10.0 mi North 6.9 mph - N/A   Clear
6:35 AM 1.4 °F -8.3 °F -0.4 °F 92% 30.40 in 10.0 mi NNE 4.6 mph - N/A   Clear
6:51 AM 1.4 °F -9.9 °F -0.4 °F 92% 30.39 in 10.0 mi North 5.8 mph - N/A   Clear
7:57 AM 1.4 °F -9.9 °F -0.4 °F 92% 30.39 in 10.0 mi North 5.8 mph - N/A   Clear
8:55 AM 3.2 °F -7.8 °F 1.4 °F 92% 30.41 in 10.0 mi North 5.8 mph - N/A   Clear
9:56 AM 12.2 °F - 5.0 °F 73% 30.43 in 10.0 mi Calm Calm - N/A   Clear
10:55 AM 12.2 °F 1.7 °F 8.6 °F 85% 30.42 in 10.0 mi North 6.9 mph - N/A   Clear
11:57 AM 17.6 °F - 10.4 °F 73% 30.40 in 10.0 mi Calm Calm - N/A   Clear
12:51 PM 19.4 °F - 12.2 °F 74% 30.37 in 10.0 mi Calm Calm - N/A   Clear
1:55 PM 24.8 °F - 12.2 °F 59% 30.34 in 10.0 mi Calm Calm - N/A   Clear
2:52 PM 24.8 °F - 15.8 °F 69% 30.34 in 10.0 mi Calm Calm - N/A   Clear
3:52 PM 24.8 °F - 15.8 °F 69% 30.34 in 10.0 mi Calm Calm - N/A   Clear
4:51 PM 23.0 °F - 15.8 °F 74% 30.33 in 10.0 mi Calm Calm - N/A   Clear
5:51 PM 15.8 °F 8.6 °F 10.4 °F 79% 30.33 in 10.0 mi NNW 4.6 mph - N/A   Clear
6:51 PM 12.2 °F - 8.6 °F 85% 30.33 in 10.0 mi Calm Calm - N/A   Clear
7:51 PM 6.8 °F -0.1 °F 3.2 °F 85% 30.33 in 10.0 mi North 3.5 mph - N/A   Clear
9:15 PM 6.8 °F -7.8 °F 3.2 °F 85% 30.32 in 10.0 mi North 10.4 mph - N/A   Clear
9:35 PM 3.2 °F -11.3 °F 3.2 °F 100% 30.32 in 10.0 mi North 9.2 mph - N/A   Clear
9:55 PM 5.0 °F -5.6 °F 3.2 °F 92% 30.32 in 10.0 mi NNE 5.8 mph - N/A   Clear
10:15 PM 5.0 °F -10.8 °F 3.2 °F 92% 30.33 in 10.0 mi North 11.5 mph - N/A   Clear
10:35 PM 5.0 °F -4.1 °F 3.2 °F 92% 30.34 in 10.0 mi NE 4.6 mph - N/A   Clear
10:55 PM 5.0 °F -4.1 °F 3.2 °F 92% 30.33 in 10.0 mi NNE 4.6 mph - N/A   Clear
11:15 PM 3.2 °F -4.2 °F 1.4 °F 92% 30.34 in 10.0 mi NNE 3.5 mph - N/A   Clear
11:35 PM 3.2 °F -7.8 °F 1.4 °F 92% 30.34 in 10.0 mi NNE 5.8 mph - N/A   Clear
11:55 PM 3.2 °F -7.8 °F 1.4 °F 92% 30.32 in 10.0 mi NNE 5.8 mph - N/A   Clear